Location: Walbrzych
(50.7833°N, 16.2833°E)
Time: 03:05:23
(UTC+01:00)

ISS - Visible Passes

Search period start: 11 December 2018 00:00
Search period end: 21 December 2018 00:00
Orbit: 401 x 408 km, 51.6° (Epoch: 10 December)

Date Brightness Start Highest point End Pass type
(mag) Time Alt. Az. Time Alt. Az. Time Alt. Az.
11 Dec -3.2 16:38:18 10° WNW 16:41:32 57° SSW 16:44:44 10° ESE visible
11 Dec -0.9 18:15:38 10° WSW 18:17:30 14° SW 18:19:21 10° S visible
12 Dec -1.3 17:22:55 10° W 17:25:32 22° SW 17:28:08 10° SSE visible
13 Dec -2.0 16:30:30 10° W 16:33:29 33° SSW 16:36:28 10° SE visible
14 Dec -0.5 17:15:54 10° WSW 17:17:16 12° SW 17:18:38 10° SSW visible
15 Dec -0.7 16:22:53 10° W 16:25:17 19° SW 16:27:41 10° S visible
